Port Aransas, TX

12:22 AM CDT on May 28, 2017 (GMT -0500)
Port Aransas

Weather History for KRAS - May, 2013

Change the Weather History Date:

Monday, May 6, 2013

  Actual Average (KNGP) Record (KNGP)
Temperature  
Mean Temperature 69 °F -  
Max Temperature 75 °F 80 °F 86 °F (2002)
Min Temperature 64 °F 69 °F 60 °F (2013)
Cooling Degree Days 4    
Growing Degree Days 19 (Base 50)    
Moisture  
Dew Point 58 °F    
Average Humidity 66    
Maximum Humidity 76    
Minimum Humidity 58    
Precipitation  
Precipitation 0.00 in - - ()
Sea Level Pressure  
Sea Level Pressure 30.05 in    
Wind  
Wind Speed 6 mph (ESE)    
Max Wind Speed 13 mph    
Max Gust Speed -    
Visibility 10 miles    
Events      
Averages and records for this station are not official NWS values.
T = Trace of Precipitation, MM = Missing Value Source: NWS Daily Summary

Daily Weather History Graph

Daily Weather History Graph

Search for Another Location

Airport or City:

Trip Planner

Search our weather history database for the weather conditions in past years. The results will help you decide how hot, cold, wet, or windy it might be!

Date:

Astronomy

May. 06, 2013 Rise Set
Actual Time 6:44 AM CDT 8:05 PM CDT
Civil Twilight 6:19 AM CDT 8:30 PM CDT
Nautical Twilight 5:49 AM CDT 9:00 PM CDT
Astronomical Twilight 5:19 AM CDT 9:31 PM CDT
Moon 4:31 AM CDT (5/6) 5:20 PM CDT (5/6)
Length of Visible Light 14h 11m
Length of Day
13h 20m
Waning Crescent, 11% of the Moon is Illuminated
May 6
Waning Crescent
May 9
New
May 17
First Quarter
May 24
Full
May 31
Last Quarter

Hourly Weather History & Observations

Time (CDT) Temp. Dew Point Humidity Pressure Visibility Wind Dir Wind Speed Gust Speed Precip Events Conditions
12:15 AM 68.2 °F 55.6 °F 64% 30.07 in 10.0 mi SE 4.6 mph - N/A   Clear
12:35 AM 67.3 °F 58.3 °F 73% 30.08 in 10.0 mi SSE 5.8 mph - N/A   Clear
12:55 AM 67.1 °F 58.1 °F 73% 30.07 in 10.0 mi South 4.6 mph - N/A   Clear
1:15 AM 66.4 °F 58.6 °F 76% 30.07 in 10.0 mi SSE 3.5 mph - N/A   Clear
1:35 AM 66.2 °F 56.3 °F 70% 30.07 in 10.0 mi SE 5.8 mph - N/A   Clear
1:55 AM 67.1 °F 55.8 °F 67% 30.06 in 10.0 mi SE 3.5 mph - N/A   Clear
2:15 AM 67.1 °F 56.1 °F 68% 30.05 in 10.0 mi ESE 5.8 mph - N/A   Clear
2:35 AM 67.1 °F 57.0 °F 70% 30.05 in 10.0 mi ESE 6.9 mph - N/A   Clear
2:55 AM 67.1 °F 55.4 °F 66% 30.05 in 10.0 mi ESE 5.8 mph - N/A   Clear
3:15 AM 66.4 °F 54.7 °F 66% 30.05 in 10.0 mi ESE 4.6 mph - N/A   Clear
3:35 AM 65.7 °F 54.9 °F 68% 30.04 in 10.0 mi ESE 4.6 mph - N/A   Clear
3:55 AM 65.3 °F 55.2 °F 70% 30.04 in 10.0 mi ESE 3.5 mph - N/A   Clear
4:15 AM 65.1 °F 55.0 °F 70% 30.05 in 10.0 mi ESE 4.6 mph - N/A   Clear
4:35 AM 64.9 °F 54.9 °F 70% 30.04 in 10.0 mi ESE 4.6 mph - N/A   Clear
4:55 AM 64.6 °F 55.0 °F 71% 30.04 in 10.0 mi ESE 4.6 mph - N/A   Clear
5:15 AM 64.9 °F 55.2 °F 71% 30.04 in 10.0 mi ESE 3.5 mph - N/A   Clear
5:35 AM 64.4 °F 55.6 °F 73% 30.04 in 10.0 mi East 4.6 mph - N/A   Clear
5:55 AM 64.6 °F 56.1 °F 74% 30.04 in 10.0 mi East 4.6 mph - N/A   Clear
6:15 AM 64.9 °F 56.5 °F 74% 30.04 in 10.0 mi East 4.6 mph - N/A   Clear
6:35 AM 65.3 °F 57.2 °F 75% 30.04 in 10.0 mi East 5.8 mph - N/A   Clear
6:55 AM 65.3 °F 57.2 °F 75% 30.05 in 10.0 mi ESE 4.6 mph - N/A   Clear
7:15 AM 66.0 °F 57.6 °F 74% 30.06 in 10.0 mi East 4.6 mph - N/A   Clear
7:35 AM 67.6 °F 58.1 °F 71% 30.07 in 10.0 mi East 5.8 mph - N/A   Clear
7:55 AM 69.1 °F 57.4 °F 66% 30.07 in 10.0 mi East 5.8 mph - N/A   Clear
8:15 AM 70.0 °F 58.1 °F 66% 30.08 in 10.0 mi East 5.8 mph - N/A   Clear
8:35 AM 70.5 °F 58.3 °F 65% 30.09 in 10.0 mi East 5.8 mph - N/A   Clear
8:55 AM 71.1 °F 58.1 °F 63% 30.09 in 10.0 mi ESE 6.9 mph - N/A   Clear
9:15 AM 71.6 °F 57.9 °F 62% 30.09 in 10.0 mi East 6.9 mph - N/A   Clear
9:35 AM 72.0 °F 58.3 °F 62% 30.09 in 10.0 mi East 8.1 mph - N/A   Clear
9:55 AM 72.0 °F 58.6 °F 63% 30.09 in 10.0 mi East 6.9 mph - N/A   Clear
10:15 AM 72.3 °F 58.6 °F 62% 30.11 in 10.0 mi ENE 5.8 mph - N/A   Clear
10:35 AM 72.7 °F 58.5 °F 61% 30.11 in 10.0 mi East 5.8 mph - N/A   Clear
10:55 AM 72.9 °F 58.5 °F 60% 30.12 in 10.0 mi East 5.8 mph - N/A   Clear
11:15 AM 73.4 °F 58.5 °F 59% 30.12 in 10.0 mi ESE 6.9 mph - N/A   Clear
11:35 AM 73.8 °F 58.8 °F 59% 30.12 in 10.0 mi East 9.2 mph - N/A   Clear
11:55 AM 74.1 °F 59.2 °F 59% 30.11 in - East 10.4 mph - N/A   Clear
12:15 PM 73.6 °F 58.5 °F 59% 30.11 in - East 9.2 mph - N/A   Clear
12:35 PM 73.9 °F 58.8 °F 59% 30.09 in - East 10.4 mph - N/A   Clear
12:55 PM 73.4 °F 58.5 °F 59% 30.09 in 10.0 mi East 9.2 mph - N/A   Clear
1:15 PM 74.1 °F 58.8 °F 59% 30.08 in - East 11.5 mph - N/A   Clear
1:35 PM 74.7 °F 59.0 °F 58% 30.06 in - ESE 12.7 mph - N/A   Clear
1:55 PM 74.3 °F 59.2 °F 59% 30.06 in - ESE 10.4 mph - N/A   Clear
2:15 PM 74.5 °F 59.0 °F 58% 30.06 in - ESE 10.4 mph - N/A   Clear
2:35 PM 74.3 °F 58.6 °F 58% 30.06 in - SE 9.2 mph - N/A   Clear
2:55 PM 73.8 °F 58.6 °F 59% 30.05 in 10.0 mi SE 9.2 mph - N/A   Clear
3:15 PM 72.9 °F 59.2 °F 62% 30.04 in 10.0 mi SE 6.9 mph - N/A   Clear
3:35 PM 72.9 °F 59.0 °F 62% 30.02 in 10.0 mi ESE 10.4 mph - N/A   Clear
3:55 PM 72.5 °F 59.2 °F 63% 30.00 in 10.0 mi ESE 11.5 mph - N/A   Clear
4:15 PM 72.1 °F 59.0 °F 63% 30.00 in 10.0 mi SE 9.2 mph - N/A   Clear
4:35 PM 73.2 °F 58.8 °F 61% 30.00 in 10.0 mi SE 9.2 mph - N/A   Clear
4:55 PM 71.8 °F 58.8 °F 64% 30.01 in 10.0 mi SE 5.8 mph - N/A   Clear
5:15 PM 71.1 °F 58.6 °F 65% 30.01 in 10.0 mi SE 5.8 mph - N/A   Scattered Clouds
5:55 PM 71.1 °F 59.4 °F 66% 30.01 in 10.0 mi SE 4.6 mph - N/A   Clear
6:15 PM 71.8 °F 58.8 °F 64% 30.00 in 10.0 mi ESE 5.8 mph - N/A   Clear
6:35 PM 71.6 °F 59.2 °F 65% 29.98 in 10.0 mi ESE 10.4 mph - N/A   Clear
6:55 PM 70.9 °F 59.4 °F 67% 29.97 in 10.0 mi ESE 11.5 mph - N/A   Clear
7:15 PM 71.1 °F 58.6 °F 65% 29.98 in 10.0 mi SE 12.7 mph - N/A   Clear
7:35 PM 70.3 °F 57.9 °F 65% 30.00 in 10.0 mi SE 9.2 mph - N/A   Clear
7:55 PM 69.8 °F 58.1 °F 66% 29.99 in 10.0 mi SE 10.4 mph - N/A   Clear
8:15 PM 69.8 °F 58.3 °F 67% 30.00 in 10.0 mi SE 10.4 mph - N/A   Clear
8:35 PM 69.3 °F 58.6 °F 69% 30.00 in 10.0 mi SSE 9.2 mph - N/A   Clear
8:55 PM 69.4 °F 59.2 °F 70% 30.01 in 10.0 mi SSE 10.4 mph - N/A   Clear
9:15 PM 69.4 °F 59.2 °F 70% 30.01 in 10.0 mi SSE 10.4 mph - N/A   Clear
9:35 PM 69.8 °F 59.2 °F 69% 30.01 in 10.0 mi SSE 10.4 mph - N/A   Clear
9:55 PM 68.9 °F 59.7 °F 72% 30.01 in 10.0 mi SSE 10.4 mph - N/A   Clear
10:15 PM 69.3 °F 59.2 °F 70% 30.01 in 10.0 mi SSE 8.1 mph - N/A   Clear
10:35 PM 68.9 °F 59.4 °F 72% 30.02 in 10.0 mi SSE 9.2 mph - N/A   Clear
10:55 PM 68.9 °F 59.4 °F 72% 30.03 in 10.0 mi SSE 8.1 mph - N/A   Clear
11:15 PM 69.3 °F 59.4 °F 71% 30.04 in 10.0 mi South 6.9 mph - N/A   Clear
11:35 PM 68.9 °F 59.7 °F 72% 30.04 in 10.0 mi South 5.8 mph - N/A   Clear
11:55 PM 68.9 °F 59.9 °F 73% 30.03 in 10.0 mi South 9.2 mph - N/A   Clear